Flag for U.S.A. Weather past 2 weeks in Bristol, Tennessee, U.S.A.

68 °F


Feels Like: 68 °F
Forecast: 60 / 73 °F
Wind: 7 mph from West

Location: Abingdon-Southwest Abingdon

Current Time: Oct 9, 2015 at 12:50:39 PM

Latest Report: Oct 9, 2015 at 12:15 PM

Visibility: 10 mi

Pressure: 30.15 "Hg (28.41 "Hg at 510m altitude)

Humidity: 80%

Dew point: 62 °F

Location of BristolLocation

Historic Weather in Bristol — Graph


Bristol temperature yesterday

Maximum temperature yesterday: 79 °F (at 2:55 PM)
Minimum temperature yesterday: 55 °F (at 5:55 AM)
Average temperature yesterday: 66 °F

Past Weeks' High & Low Weather Summary

High81 °F (Sep 28, 2:55 PM)96% (Sep 29, 10:15 PM)30.25 "Hg (Sep 29, 10:15 PM)
Low51 °F (Oct 7, 7:35 AM)26% (Sep 24, 1:35 PM)29.82 "Hg (Oct 3, 4:15 AM)
Average65 °F75%30.06 "Hg
* Reported Sep 24 11:15 AM — Oct 9 11:55 AM, Bristol, Weather by CustomWeather, © 2015

Note: Actual official high and low records may vary slightly from our data, if they occured in-between our weather recording intervals... More about our weather records


Bristol weather history for previous 24 hours

Time TempWeatherWind HumidityBarometerVisibility
11:55 AM
Fri, Oct 9
67 °FOvercast.8 mph80%30.15 "Hg10 mi
11:15 AM66 °FOvercast.6 mph86%30.16 "Hg10 mi
10:35 AM65 °FMostly cloudy.No wind91%30.17 "Hg10 mi
10:15 AM65 °FCloudy.3 mph93%30.16 "Hg10 mi
9:55 AM64 °FMore clouds than sun.3 mph95%30.16 "Hg10 mi
9:35 AM64 °FMore clouds than sun.No wind95%30.16 "Hg10 mi
9:15 AM63 °FLight rain. Overcast.5 mph94%30.15 "Hg5 mi
8:55 AM63 °FRain. Mostly cloudy.No wind95%30.15 "Hg7 mi
8:35 AM63 °FRain. More clouds than sun.3 mph95%30.15 "Hg3 mi
8:15 AM62 °FOvercast.No wind95%30.14 "Hg7 mi
7:55 AM62 °FOvercast.No wind95%30.14 "Hg10 mi
7:35 AM62 °FOvercast.No wind96%30.13 "Hg10 mi
7:15 AM62 °FMostly cloudy.No wind96%30.13 "Hg10 mi
6:55 AM62 °FOvercast.No wind94%30.12 "Hg10 mi
6:35 AM62 °FLight rain. Mostly cloudy.3 mph94%30.12 "Hg7 mi
6:15 AM61 °FRain. Overcast.3 mph91%30.13 "Hg10 mi
5:55 AM62 °FOvercast.No wind89%30.12 "Hg10 mi
5:15 AM61 °FMostly cloudy.No wind90%30.12 "Hg10 mi
4:55 AM61 °FMostly cloudy.No wind92%30.12 "Hg10 mi
4:35 AM61 °FOvercast.No wind92%30.12 "Hg10 mi
4:15 AM60 °FMostly cloudy.No wind92%30.12 "Hg10 mi
3:55 AM59 °FMostly cloudy.No wind92%30.13 "Hg10 mi
3:35 AM59 °FOvercast.No wind92%30.13 "Hg10 mi
3:15 AM58 °FPartly cloudy.No wind94%30.13 "Hg10 mi
2:55 AM59 °FPassing clouds.No wind94%30.13 "Hg10 mi
2:35 AM58 °FClear.No wind94%30.12 "Hg10 mi
2:15 AM59 °FClear.No wind93%30.12 "Hg10 mi
1:55 AM59 °FClear.3 mph92%30.12 "Hg10 mi
1:35 AM59 °FPassing clouds.No wind91%30.13 "Hg10 mi
1:15 AM59 °FPassing clouds.No wind89%30.13 "Hg10 mi
12:55 AM59 °FClear.No wind90%30.13 "Hg10 mi
12:15 AM60 °FClear.No wind90%30.14 "Hg10 mi
11:55 PM
Thu, Oct 8
60 °FPassing clouds.No wind89%30.14 "Hg10 mi
11:35 PM60 °FPassing clouds.No wind87%30.14 "Hg10 mi
10:55 PM61 °FClear.No wind85%30.15 "Hg10 mi
10:35 PM61 °FClear.No wind85%30.14 "Hg10 mi
10:15 PM62 °FClear.No wind84%30.14 "Hg10 mi
9:55 PM62 °FClear.No wind83%30.14 "Hg10 mi
9:35 PM63 °FClear.No wind82%30.14 "Hg10 mi
9:15 PM64 °FClear.No wind79%30.14 "Hg10 mi
8:55 PM64 °FClear.No wind78%30.14 "Hg10 mi
8:35 PM64 °FClear.No wind78%30.13 "Hg10 mi
8:15 PM67 °FClear.No wind71%30.12 "Hg10 mi
7:55 PM67 °FSunny.No wind69%30.12 "Hg10 mi
7:15 PM72 °FSunny.No wind57%30.12 "Hg10 mi
6:55 PM73 °FSunny.6 mph55%30.11 "Hg10 mi
6:15 PM76 °FSunny.3 mph50%30.12 "Hg10 mi
5:15 PM78 °FScattered clouds.7 mph45%30.12 "Hg10 mi
4:55 PM78 °FScattered clouds.8 mph42%30.12 "Hg10 mi
4:35 PM77 °FPartly sunny.7 mph47%30.12 "Hg10 mi
4:15 PM76 °FMostly cloudy.6 mph47%30.12 "Hg10 mi
3:55 PM79 °FBroken clouds.7 mph43%30.12 "Hg10 mi
3:35 PM79 °FBroken clouds.12 mph44%30.12 "Hg10 mi
3:15 PM78 °FPartly sunny.12 mph45%30.12 "Hg10 mi
2:55 PM79 °FScattered clouds.10 mph43%30.13 "Hg10 mi
2:15 PM78 °FSunny.8 mph41%30.15 "Hg10 mi
1:55 PM78 °FSunny.12 mph44%30.16 "Hg10 mi
1:35 PM78 °FSunny.6 mph42%30.16 "Hg10 mi
1:15 PM77 °FSunny.5 mph45%30.17 "Hg10 mi
12:55 PM78 °FSunny.9 mph44%30.18 "Hg10 mi
12:35 PM77 °FSunny.8 mph48%30.18 "Hg10 mi
12:15 PM76 °FSunny.6 mph50%30.18 "Hg10 mi
Weather by CustomWeather, © 2015

See weather overviewHow to use our weather pages